,,PA_Meas_PMT16A,,PR_Meas_QMR101_102,,RH_Meas_QMH101,,SR_Meas_QMS101,,TA_Meas_QMH101,,GenWind,,GenWind,
time,status,PA,status,PR,status,RH,status,SR,status,TA,status,DirAvg,status,SpdAvg,
2010-06-02, 00:00:04,VALID,918.798,VALID,0,VALID,97.2672,VALID,0,VALID,20.2879,VALID,13,VALID,0.264062,
2010-06-02, 00:01:04,VALID,918.831,VALID,0,VALID,97.2519,VALID,0,VALID,20.2863,VALID,13,VALID,0.577344,
2010-06-02, 00:02:04,VALID,918.809,VALID,0,VALID,97.2519,VALID,0,VALID,20.2668,VALID,13,VALID,0.797656,
2010-06-02, 00:03:04,VALID,918.79,VALID,0,VALID,97.2443,VALID,0,VALID,20.2668,VALID,13,VALID,0.770703,
2010-06-02, 00:04:04,VALID,918.795,VALID,0,VALID,97.2367,VALID,0,VALID,20.2473,VALID,13,VALID,0.742578,
2010-06-02, 00:05:04,VALID,918.756,VALID,0,VALID,97.2443,VALID,0,VALID,20.2684,VALID,13,VALID,0.758203,
2010-06-02, 00:06:04,VALID,918.757,VALID,0,VALID,97.2062,VALID,0,VALID,20.2489,VALID,13,VALID,0.929688,
2010-06-02, 00:07:04,VALID,918.752,VALID,0,VALID,97.2138,VALID,0,VALID,20.2489,VALID,13,VALID,0.784766,
2010-06-02, 00:08:04,VALID,918.757,VALID,0,VALID,97.1833,VALID,0,VALID,20.2684,VALID,13,VALID,0.566406,
2010-06-02, 00:09:04,VALID,918.741,VALID,0,VALID,97.2062,VALID,0,VALID,20.2489,VALID,13,VALID,0.511719,
2010-06-02, 00:10:04,VALID,918.741,VALID,0,VALID,97.1833,VALID,0,VALID,20.2489,VALID,13,VALID,0.844922,
2010-06-02, 00:11:04,VALID,918.713,VALID,0,VALID,97.1452,VALID,0,VALID,20.2489,VALID,13,VALID,0.891797,
2010-06-02, 00:12:04,VALID,918.697,VALID,0,VALID,97.1528,VALID,0,VALID,20.2293,VALID,13,VALID,0.687891,
2010-06-02, 00:13:04,VALID,918.704,VALID,0,VALID,97.1147,VALID,0,VALID,20.2293,VALID,13,VALID,1.30234,
2010-06-02, 00:14:04,VALID,918.695,VALID,0,VALID,97.0842,VALID,0,VALID,20.1888,VALID,13,VALID,0.783984,
2010-06-02, 00:15:04,VALID,918.689,VALID,0,VALID,97.0156,VALID,0,VALID,20.2293,VALID,13,VALID,0.600781,
2010-06-02, 00:16:04,VALID,918.696,VALID,0,VALID,96.9622,VALID,0,VALID,20.2293,VALID,13,VALID,0.807813,
2010-06-02, 00:17:04,VALID,918.685,VALID,0,VALID,96.9089,VALID,0,VALID,20.1888,VALID,13,VALID,0.68125,
2010-06-02, 00:18:04,VALID,918.682,VALID,0,VALID,96.9698,VALID,0,VALID,20.2293,VALID,13,VALID,0.749219,
2010-06-02, 00:19:04,VALID,918.701,VALID,0,VALID,96.9089,VALID,0,VALID,20.2293,VALID,13,VALID,0.706641,
2010-06-02, 00:20:04,VALID,918.674,VALID,0,VALID,96.8784,VALID,0,VALID,20.1903,VALID,13,VALID,0.547266,
2010-06-02, 00:21:04,VALID,918.659,VALID,0,VALID,96.8707,VALID,0,VALID,20.2098,VALID,13,VALID,0.546484,
2010-06-02, 00:22:04,VALID,918.656,VALID,0,VALID,96.8403,VALID,0,VALID,20.2293,VALID,13,VALID,0.705859,
2010-06-02, 00:23:04,VALID,918.622,VALID,0,VALID,96.886,VALID,0,VALID,20.2293,VALID,13,VALID,0.00585938,
2010-06-02, 00:24:04,VALID,918.619,VALID,0,VALID,96.9165,VALID,0,VALID,20.2489,VALID,13,VALID,0.0136719,
2010-06-02, 00:25:04,VALID,918.606,VALID,0,VALID,96.8936,VALID,0,VALID,20.2489,VALID,13,VALID,0.2625,
2010-06-02, 00:26:04,VALID,918.587,VALID,0,VALID,96.9775,VALID,0,VALID,20.2879,VALID,13,VALID,0.344922,
2010-06-02, 00:27:04,VALID,918.578,VALID,0,VALID,96.947,VALID,0,VALID,20.2473,VALID,13,VALID,0.512891,
2010-06-02, 00:28:04,VALID,918.546,VALID,0,VALID,96.9775,VALID,0,VALID,20.3074,VALID,13,VALID,0.371484,
2010-06-02, 00:29:04,VALID,918.552,VALID,0,VALID,96.9165,VALID,0,VALID,20.3074,VALID,13,VALID,0.623047,
2010-06-02, 00:30:04,VALID,918.535,VALID,0,VALID,96.9012,VALID,0,VALID,20.2473,VALID,13,VALID,0.693359,
2010-06-02, 00:31:04,VALID,918.556,VALID,0,VALID,96.8784,VALID,0,VALID,20.2489,VALID,13,VALID,0.915625,
2010-06-02, 00:32:04,VALID,918.517,VALID,0,VALID,96.8784,VALID,0,VALID,20.2293,VALID,13,VALID,0.873828,
2010-06-02, 00:33:04,VALID,918.568,VALID,0,VALID,96.9241,VALID,0,VALID,20.2293,VALID,13,VALID,0.677344,
2010-06-02, 00:34:04,VALID,918.61,VALID,0,VALID,96.9165,VALID,0,VALID,20.2278,VALID,13,VALID,0.667969,
2010-06-02, 00:35:04,VALID,918.646,VALID,0,VALID,96.9241,VALID,0,VALID,20.2278,VALID,13,VALID,0.238672,
2010-06-02, 00:36:04,VALID,918.625,VALID,0,VALID,96.9012,VALID,0,VALID,20.2293,VALID,13,VALID,0.440625,
2010-06-02, 00:37:04,VALID,918.636,VALID,0,VALID,96.947,VALID,0,VALID,20.2489,VALID,13,VALID,0.575391,
2010-06-02, 00:38:04,VALID,918.621,VALID,0,VALID,96.9394,VALID,0,VALID,20.2489,VALID,13,VALID,0.353516,
2010-06-02, 00:39:04,VALID,918.605,VALID,0,VALID,96.8936,VALID,0,VALID,20.2278,VALID,13,VALID,0.686719,
2010-06-02, 00:40:04,VALID,918.589,VALID,0,VALID,96.9317,VALID,0.107441,VALID,20.2473,VALID,13,VALID,0.452344,
2010-06-02, 00:41:04,VALID,918.612,VALID,0,VALID,96.9165,VALID,0,VALID,20.3074,VALID,13,VALID,0.511719,
2010-06-02, 00:42:04,VALID,918.587,VALID,0,VALID,96.8707,VALID,0,VALID,20.2473,VALID,13,VALID,0.226563,
2010-06-02, 00:43:04,VALID,918.597,VALID,0,VALID,96.8707,VALID,0,VALID,20.2668,VALID,13,VALID,0.220313,
2010-06-02, 00:44:04,VALID,918.601,VALID,0,VALID,96.8707,VALID,0,VALID,20.2879,VALID,13,VALID,0.235547,
2010-06-02, 00:45:04,VALID,918.642,VALID,0,VALID,96.9012,VALID,0,VALID,20.3269,VALID,13,VALID,0.334766,
2010-06-02, 00:46:04,VALID,918.638,VALID,0,VALID,96.9241,VALID,0,VALID,20.3253,VALID,13,VALID,0,
2010-06-02, 00:47:04,VALID,918.624,VALID,0,VALID,96.9394,VALID,0,VALID,20.3448,VALID,13,VALID,0.476953,
2010-06-02, 00:48:04,VALID,918.65,VALID,0,VALID,96.9317,VALID,0,VALID,20.3253,VALID,13,VALID,0,
2010-06-02, 00:49:04,VALID,918.663,VALID,0,VALID,96.9317,VALID,0.107441,VALID,20.3464,VALID,13,VALID,0.251563,
2010-06-02, 00:50:04,VALID,918.669,VALID,0,VALID,96.9165,VALID,0,VALID,20.3464,VALID,13,VALID,0.0121094,
2010-06-02, 00:51:04,VALID,918.669,VALID,0,VALID,96.947,VALID,0,VALID,20.3253,VALID,13,VALID,0.137891,
2010-06-02, 00:52:04,VALID,918.63,VALID,0,VALID,96.9851,VALID,0,VALID,20.3643,VALID,13,VALID,0,
2010-06-02, 00:53:04,VALID,918.635,VALID,0,VALID,96.9851,VALID,0,VALID,20.3659,VALID,13,VALID,0.282422,
2010-06-02, 00:54:04,VALID,918.641,VALID,0,VALID,96.9927,VALID,0.107441,VALID,20.3643,VALID,13,VALID,0.429688,
2010-06-02, 00:55:04,VALID,918.64,VALID,0,VALID,96.9851,VALID,0.107441,VALID,20.3643,VALID,13,VALID,0.217969,
2010-06-02, 00:56:04,VALID,918.615,VALID,0,VALID,96.9851,VALID,0.107441,VALID,20.3643,VALID,13,VALID,0.425,
2010-06-02, 00:57:04,VALID,918.633,VALID,0,VALID,97.0003,VALID,0,VALID,20.3854,VALID,13,VALID,0.0671875,
2010-06-02, 00:58:04,VALID,918.605,VALID,0,VALID,96.9927,VALID,0,VALID,20.3838,VALID,13,VALID,0.675,
2010-06-02, 00:59:04,VALID,918.612,VALID,0,VALID,96.9851,VALID,0,VALID,20.3659,VALID,13,VALID,0.888672,
2010-06-02, 01:00:04,VALID,918.625,VALID,0,VALID,96.9851,VALID,0,VALID,20.3448,VALID,13,VALID,0.867188,
2010-06-02, 01:01:04,VALID,918.625,VALID,0,VALID,96.9851,VALID,0,VALID,20.3659,VALID,13,VALID,0.557031,
2010-06-02, 01:02:04,VALID,918.589,VALID,0,VALID,96.9851,VALID,0,VALID,20.3854,VALID,13,VALID,0.483984,
2010-06-02, 01:03:04,VALID,918.581,VALID,0,VALID,96.9698,VALID,0,VALID,20.4049,VALID,13,VALID,0.864062,
2010-06-02, 01:04:04,VALID,918.573,VALID,0,VALID,96.947,VALID,0,VALID,20.3854,VALID,13,VALID,0.801562,
2010-06-02, 01:05:04,VALID,918.566,VALID,0,VALID,96.947,VALID,0,VALID,20.3643,VALID,13,VALID,0.75625,
2010-06-02, 01:06:04,VALID,918.544,VALID,0,VALID,96.9622,VALID,0.107441,VALID,20.3643,VALID,13,VALID,0.58125,
2010-06-02, 01:07:04,VALID,918.513,VALID,0,VALID,96.886,VALID,0.107441,VALID,20.3643,VALID,13,VALID,0.939453,
2010-06-02, 01:08:04,VALID,918.512,VALID,0,VALID,96.9241,VALID,0.107441,VALID,20.4049,VALID,13,VALID,0.673047,
2010-06-02, 01:09:04,VALID,918.514,VALID,0,VALID,96.947,VALID,0,VALID,20.4033,VALID,13,VALID,0.422656,
2010-06-02, 01:10:04,VALID,918.498,VALID,0,VALID,96.9165,VALID,0.107441,VALID,20.4033,VALID,13,VALID,0.485156,
2010-06-02, 01:11:04,VALID,918.52,VALID,0,VALID,96.9241,VALID,0.107441,VALID,20.4033,VALID,13,VALID,0.25625,
2010-06-02, 01:12:04,VALID,918.504,VALID,0,VALID,96.9165,VALID,0.107441,VALID,20.4033,VALID,13,VALID,0,
2010-06-02, 01:13:04,VALID,918.487,VALID,0,VALID,96.9089,VALID,0,VALID,20.4228,VALID,13,VALID,0.294531,
2010-06-02, 01:14:04,VALID,918.468,VALID,0,VALID,96.9241,VALID,0,VALID,20.4244,VALID,13,VALID,0.717188,
2010-06-02, 01:15:04,VALID,918.449,VALID,0,VALID,96.9165,VALID,0,VALID,20.4244,VALID,13,VALID,1.11758,
2010-06-02, 01:16:04,VALID,918.433,VALID,0,VALID,96.8784,VALID,0.107441,VALID,20.4049,VALID,13,VALID,1.1207,
2010-06-02, 01:17:04,VALID,918.435,VALID,0,VALID,96.8707,VALID,0,VALID,20.3838,VALID,13,VALID,1.06055,
2010-06-02, 01:18:04,VALID,918.397,VALID,0,VALID,96.825,VALID,0,VALID,20.3659,VALID,13,VALID,1.0668,
2010-06-02, 01:19:04,VALID,918.412,VALID,0,VALID,96.8174,VALID,0.107441,VALID,20.3253,VALID,13,VALID,0.808984,
2010-06-02, 01:20:04,VALID,918.394,VALID,0,VALID,96.825,VALID,0,VALID,20.3058,VALID,13,VALID,1.15898,
2010-06-02, 01:21:04,VALID,918.38,VALID,0,VALID,96.8403,VALID,0.107441,VALID,20.3058,VALID,13,VALID,0.794141,
2010-06-02, 01:22:04,VALID,918.373,VALID,0,VALID,96.8784,VALID,0,VALID,20.3464,VALID,13,VALID,0.925391,
2010-06-02, 01:23:04,VALID,918.383,VALID,0,VALID,96.8784,VALID,0.107441,VALID,20.3058,VALID,13,VALID,0.795313,
2010-06-02, 01:24:04,VALID,918.371,VALID,0,VALID,96.886,VALID,0.107441,VALID,20.3074,VALID,13,VALID,1.11328,
2010-06-02, 01:25:04,VALID,918.372,VALID,0,VALID,96.8631,VALID,0,VALID,20.2668,VALID,13,VALID,1.11172,
2010-06-02, 01:26:04,VALID,918.378,VALID,0,VALID,96.9012,VALID,0.107441,VALID,20.2863,VALID,13,VALID,0.847266,
2010-06-02, 01:27:04,VALID,918.367,VALID,0,VALID,96.9241,VALID,0.107441,VALID,20.2863,VALID,13,VALID,0.436719,
2010-06-02, 01:28:04,VALID,918.362,VALID,0,VALID,96.9546,VALID,0.107441,VALID,20.2668,VALID,13,VALID,0.334766,
2010-06-02, 01:29:04,VALID,918.355,VALID,0,VALID,96.9546,VALID,0.107441,VALID,20.2668,VALID,13,VALID,0.636328,
2010-06-02, 01:30:04,VALID,918.312,VALID,0,VALID,96.9698,VALID,0,VALID,20.2879,VALID,13,VALID,0.405078,
2010-06-02, 01:31:04,VALID,918.294,VALID,0,VALID,96.9775,VALID,0,VALID,20.2863,VALID,13,VALID,0.169531,
2010-06-02, 01:32:04,VALID,918.312,VALID,0,VALID,96.9775,VALID,0.107441,VALID,20.3058,VALID,13,VALID,0.291016,
2010-06-02, 01:33:04,VALID,918.29,VALID,0,VALID,96.9927,VALID,0.107441,VALID,20.2863,VALID,13,VALID,0.680469,
2010-06-02, 01:34:04,VALID,918.306,VALID,0,VALID,96.9775,VALID,0.107441,VALID,20.2863,VALID,13,VALID,0.394531,
2010-06-02, 01:35:04,VALID,918.299,VALID,0,VALID,97.0232,VALID,0.107441,VALID,20.3253,VALID,13,VALID,0.506641,
2010-06-02, 01:36:04,VALID,918.288,VALID,0,VALID,97.0308,VALID,0.107441,VALID,20.3448,VALID,13,VALID,0.4125,
2010-06-02, 01:37:04,VALID,918.316,VALID,0,VALID,97.0156,VALID,0,VALID,20.3448,VALID,13,VALID,0.241016,
2010-06-02, 01:38:04,VALID,918.33,VALID,0,VALID,97.0385,VALID,0.107441,VALID,20.3643,VALID,13,VALID,0.404687,
2010-06-02, 01:39:04,VALID,918.301,VALID,0,VALID,97.0537,VALID,0.107441,VALID,20.4049,VALID,13,VALID,0.778516,
2010-06-02, 01:40:04,VALID,918.306,VALID,0,VALID,97.0156,VALID,0,VALID,20.3659,VALID,13,VALID,1.13594,
2010-06-02, 01:41:04,VALID,918.332,VALID,0,VALID,97.008,VALID,0,VALID,20.3253,VALID,13,VALID,0.757813,
2010-06-02, 01:42:04,VALID,918.323,VALID,0,VALID,97.0156,VALID,0,VALID,20.3448,VALID,13,VALID,0.396094,
2010-06-02, 01:43:04,VALID,918.336,VALID,0,VALID,97.0385,VALID,0.107441,VALID,20.3238,VALID,13,VALID,0.290234,
2010-06-02, 01:44:04,VALID,918.332,VALID,0,VALID,97.0232,VALID,0,VALID,20.3448,VALID,13,VALID,0.3625,
2010-06-02, 01:45:04,VALID,918.278,VALID,0,VALID,97.0461,VALID,0.107441,VALID,20.3643,VALID,13,VALID,0.726563,
2010-06-02, 01:46:04,VALID,918.339,VALID,0,VALID,97.0613,VALID,0.107441,VALID,20.3643,VALID,13,VALID,0.537109,
2010-06-02, 01:47:04,VALID,918.316,VALID,0,VALID,97.0461,VALID,0,VALID,20.3448,VALID,13,VALID,0.282813,
2010-06-02, 01:48:04,VALID,918.295,VALID,0,VALID,97.0613,VALID,0.107441,VALID,20.3643,VALID,13,VALID,0,
2010-06-02, 01:49:04,VALID,918.278,VALID,0,VALID,97.0842,VALID,0,VALID,20.3838,VALID,13,VALID,0,
2010-06-02, 01:50:04,VALID,918.308,VALID,0,VALID,97.0537,VALID,0,VALID,20.3838,VALID,13,VALID,0.645703,
2010-06-02, 01:51:04,VALID,918.272,VALID,0,VALID,97.069,VALID,0,VALID,20.3448,VALID,13,VALID,0.945313,
2010-06-02, 01:52:04,VALID,918.275,VALID,0,VALID,97.0613,VALID,0,VALID,20.3643,VALID,13,VALID,0.924609,
2010-06-02, 01:53:04,VALID,918.291,VALID,0,VALID,97.0613,VALID,0,VALID,20.3448,VALID,13,VALID,0.165625,
2010-06-02, 01:54:04,VALID,918.295,VALID,0,VALID,97.0537,VALID,0,VALID,20.4049,VALID,13,VALID,0,
2010-06-02, 01:55:04,VALID,918.294,VALID,0,VALID,97.0842,VALID,0,VALID,20.4049,VALID,13,VALID,0.471484,
2010-06-02, 01:56:04,VALID,918.304,VALID,0,VALID,97.069,VALID,0,VALID,20.4033,VALID,13,VALID,0.467578,
2010-06-02, 01:57:04,VALID,918.323,VALID,0,VALID,97.069,VALID,0,VALID,20.3838,VALID,13,VALID,0.197266,
2010-06-02, 01:58:04,VALID,918.312,VALID,0,VALID,97.0537,VALID,0,VALID,20.3854,VALID,13,VALID,0.607031,
2010-06-02, 01:59:04,VALID,918.299,VALID,0,VALID,97.0842,VALID,0,VALID,20.4033,VALID,13,VALID,0.490625,
2010-06-02, 02:00:04,VALID,918.336,VALID,0,VALID,97.0766,VALID,0,VALID,20.4033,VALID,13,VALID,0.576172,
2010-06-02, 02:01:04,VALID,918.299,VALID,0,VALID,97.0994,VALID,0,VALID,20.4228,VALID,13,VALID,1.44687,
2010-06-02, 02:02:04,VALID,918.288,VALID,0,VALID,97.0842,VALID,0,VALID,20.4033,VALID,13,VALID,1.34844,
2010-06-02, 02:03:04,VALID,918.294,VALID,0,VALID,97.1147,VALID,0,VALID,20.4228,VALID,14,VALID,1.01445,
2010-06-02, 02:04:04,VALID,918.269,VALID,0,VALID,97.1071,VALID,0,VALID,20.4033,VALID,15,VALID,0.860547,
2010-06-02, 02:05:04,VALID,918.298,VALID,0,VALID,97.1071,VALID,0,VALID,20.4033,VALID,15,VALID,0.952344,
2010-06-02, 02:06:04,VALID,918.312,VALID,0,VALID,97.1223,VALID,0,VALID,20.4228,VALID,15,VALID,0.926562,
2010-06-02, 02:07:04,VALID,918.26,VALID,0,VALID,97.0918,VALID,0,VALID,20.3838,VALID,15,VALID,1.00234,
2010-06-02, 02:08:04,VALID,918.239,VALID,0,VALID,97.1071,VALID,0,VALID,20.3854,VALID,15,VALID,1.10391,
2010-06-02, 02:09:04,VALID,918.272,VALID,0,VALID,97.1223,VALID,0,VALID,20.3643,VALID,15,VALID,0.982031,
2010-06-02, 02:10:04,VALID,918.267,VALID,0,VALID,97.1223,VALID,0,VALID,20.4049,VALID,15,VALID,0.989844,
2010-06-02, 02:11:04,VALID,918.289,VALID,0,VALID,97.1299,VALID,0,VALID,20.4049,VALID,15,VALID,0.971094,
2010-06-02, 02:12:04,VALID,918.29,VALID,0,VALID,97.1147,VALID,0,VALID,20.4033,VALID,48,VALID,0.969922,
2010-06-02, 02:13:04,VALID,918.31,VALID,0,VALID,97.1223,VALID,0,VALID,20.4244,VALID,39,VALID,0.894922,
2010-06-02, 02:14:04,VALID,918.341,VALID,0,VALID,97.1452,VALID,0,VALID,20.4033,VALID,2,VALID,0.973437,
2010-06-02, 02:15:04,VALID,918.309,VALID,0,VALID,97.1376,VALID,0,VALID,20.4244,VALID,2,VALID,1.01992,
2010-06-02, 02:16:04,VALID,918.34,VALID,0,VALID,97.1299,VALID,0,VALID,20.4228,VALID,2,VALID,0.64375,
2010-06-02, 02:17:04,VALID,918.345,VALID,0,VALID,97.1452,VALID,0,VALID,20.4244,VALID,2,VALID,1.34531,
2010-06-02, 02:18:04,VALID,918.343,VALID,0,VALID,97.1452,VALID,0,VALID,20.4033,VALID,2,VALID,1.00469,
2010-06-02, 02:19:04,VALID,918.317,VALID,0,VALID,97.1604,VALID,0,VALID,20.4244,VALID,2,VALID,0.862891,
2010-06-02, 02:20:04,VALID,918.345,VALID,0,VALID,97.1376,VALID,0,VALID,20.3643,VALID,29,VALID,1.20859,
2010-06-02, 02:21:04,VALID,918.355,VALID,0,VALID,97.1071,VALID,0,VALID,20.3464,VALID,34,VALID,0.908203,
2010-06-02, 02:22:04,VALID,918.346,VALID,0,VALID,97.1299,VALID,0,VALID,20.3659,VALID,34,VALID,1.09258,
2010-06-02, 02:23:04,VALID,918.35,VALID,0,VALID,97.1604,VALID,0,VALID,20.3659,VALID,34,VALID,0.887891,
2010-06-02, 02:24:04,VALID,918.381,VALID,0,VALID,97.1681,VALID,0,VALID,20.3643,VALID,34,VALID,1.37109,
2010-06-02, 02:25:04,VALID,918.334,VALID,0,VALID,97.1376,VALID,0,VALID,20.3643,VALID,34,VALID,1.20195,
2010-06-02, 02:26:04,VALID,918.351,VALID,0,VALID,97.1681,VALID,0,VALID,20.3448,VALID,34,VALID,0.655078,
2010-06-02, 02:27:04,VALID,918.328,VALID,0,VALID,97.1528,VALID,0,VALID,20.3659,VALID,34,VALID,1.3375,
2010-06-02, 02:28:04,VALID,918.346,VALID,0,VALID,97.1681,VALID,0,VALID,20.3854,VALID,34,VALID,1.04219,
2010-06-02, 02:29:04,VALID,918.325,VALID,0,VALID,97.1528,VALID,0,VALID,20.3659,VALID,34,VALID,1.74063,
2010-06-02, 02:30:04,VALID,918.312,VALID,0,VALID,97.1833,VALID,0,VALID,20.3643,VALID,29,VALID,1.09297,
2010-06-02, 02:31:04,VALID,918.313,VALID,0,VALID,97.1757,VALID,0,VALID,20.3238,VALID,13,VALID,1.69453,
2010-06-02, 02:32:04,VALID,918.326,VALID,0,VALID,97.1681,VALID,0,VALID,20.3464,VALID,8,VALID,1.67617,
2010-06-02, 02:33:04,VALID,918.323,VALID,0,VALID,97.1604,VALID,0,VALID,20.3269,VALID,6,VALID,1.14258,
2010-06-02, 02:34:04,VALID,918.331,VALID,0,VALID,97.1757,VALID,0,VALID,20.3058,VALID,6,VALID,1.07969,
2010-06-02, 02:35:04,VALID,918.341,VALID,0,VALID,97.1833,VALID,0.107441,VALID,20.3253,VALID,6,VALID,0.56875,
2010-06-02, 02:36:04,VALID,918.338,VALID,0,VALID,97.1986,VALID,0,VALID,20.3659,VALID,6,VALID,0.692969,
2010-06-02, 02:37:04,VALID,918.339,VALID,0,VALID,97.2062,VALID,0.107441,VALID,20.3448,VALID,6,VALID,0.926953,
2010-06-02, 02:38:04,VALID,918.334,VALID,0,VALID,97.1909,VALID,0,VALID,20.3643,VALID,6,VALID,0.689453,
2010-06-02, 02:39:04,VALID,918.333,VALID,0,VALID,97.2062,VALID,0,VALID,20.3643,VALID,6,VALID,0.438281,
2010-06-02, 02:40:04,VALID,918.349,VALID,0,VALID,97.2062,VALID,0,VALID,20.3643,VALID,6,VALID,0.551562,
2010-06-02, 02:41:04,VALID,918.34,VALID,0,VALID,97.1986,VALID,0,VALID,20.3838,VALID,6,VALID,0.0894531,
2010-06-02, 02:42:04,VALID,918.367,VALID,0,VALID,97.2138,VALID,0,VALID,20.3838,VALID,6,VALID,0.496875,
2010-06-02, 02:43:04,VALID,918.313,VALID,0,VALID,97.2138,VALID,0,VALID,20.4049,VALID,6,VALID,0.596094,
2010-06-02, 02:44:04,VALID,918.294,VALID,0,VALID,97.2138,VALID,0,VALID,20.3854,VALID,355,VALID,1.45039,
2010-06-02, 02:45:04,VALID,918.343,VALID,0,VALID,97.2062,VALID,0,VALID,20.3448,VALID,352,VALID,1.02266,
2010-06-02, 02:46:04,VALID,918.323,VALID,0,VALID,97.1986,VALID,0,VALID,20.3448,VALID,352,VALID,0.93125,
2010-06-02, 02:47:04,VALID,918.299,VALID,0,VALID,97.1986,VALID,0,VALID,20.3659,VALID,352,VALID,1.26719,
2010-06-02, 02:48:04,VALID,918.295,VALID,0,VALID,97.229,VALID,0,VALID,20.3659,VALID,352,VALID,0.856641,
2010-06-02, 02:49:04,VALID,918.288,VALID,0,VALID,97.2367,VALID,0.107441,VALID,20.3643,VALID,43,VALID,0.503125,
2010-06-02, 02:50:04,VALID,918.322,VALID,0,VALID,97.2367,VALID,0,VALID,20.3854,VALID,43,VALID,0.0996094,
2010-06-02, 02:51:04,VALID,918.316,VALID,0,VALID,97.2214,VALID,0,VALID,20.3643,VALID,43,VALID,0.0078125,
2010-06-02, 02:52:04,VALID,918.315,VALID,0,VALID,97.2138,VALID,0,VALID,20.3643,VALID,43,VALID,0.385156,
2010-06-02, 02:53:04,VALID,918.304,VALID,0,VALID,97.2367,VALID,0,VALID,20.3448,VALID,43,VALID,0.363672,
2010-06-02, 02:54:04,VALID,918.341,VALID,0,VALID,97.2443,VALID,0,VALID,20.3464,VALID,43,VALID,0.396484,
2010-06-02, 02:55:04,VALID,918.329,VALID,0,VALID,97.2443,VALID,0,VALID,20.3464,VALID,43,VALID,0.365625,
2010-06-02, 02:56:04,VALID,918.309,VALID,0,VALID,97.2367,VALID,0,VALID,20.3269,VALID,43,VALID,0.352734,
2010-06-02, 02:57:04,VALID,918.311,VALID,0,VALID,97.2519,VALID,0,VALID,20.3253,VALID,43,VALID,0.0894531,
2010-06-02, 02:58:04,VALID,918.294,VALID,0,VALID,97.2367,VALID,0.107441,VALID,20.3058,VALID,43,VALID,0.417578,
2010-06-02, 02:59:04,VALID,918.286,VALID,0,VALID,97.2595,VALID,0,VALID,20.2863,VALID,281,VALID,0.507031,
2010-06-02, 03:00:04,VALID,918.271,VALID,0,VALID,97.2595,VALID,0,VALID,20.3253,VALID,281,VALID,0.379297,
2010-06-02, 03:01:04,VALID,918.275,VALID,0,VALID,97.2595,VALID,0.107441,VALID,20.3448,VALID,281,VALID,0,
2010-06-02, 03:02:04,VALID,918.255,VALID,0,VALID,97.2595,VALID,0.107441,VALID,20.3448,VALID,281,VALID,0.641797,
2010-06-02, 03:03:04,VALID,918.231,VALID,0,VALID,97.2519,VALID,0.107441,VALID,20.4033,VALID,281,VALID,0.994531,
2010-06-02, 03:04:04,VALID,918.263,VALID,0,VALID,97.2595,VALID,0,VALID,20.4033,VALID,354,VALID,0.380078,
2010-06-02, 03:05:04,VALID,918.253,VALID,0,VALID,97.2672,VALID,0,VALID,20.4033,VALID,354,VALID,0,
2010-06-02, 03:06:04,VALID,918.268,VALID,0,VALID,97.2748,VALID,0,VALID,20.3838,VALID,354,VALID,0.147266,
2010-06-02, 03:07:04,VALID,918.289,VALID,0,VALID,97.2748,VALID,0.107441,VALID,20.3838,VALID,354,VALID,0.756641,
2010-06-02, 03:08:04,VALID,918.281,VALID,0,VALID,97.2519,VALID,0.107441,VALID,20.3643,VALID,354,VALID,0.564453,
2010-06-02, 03:09:04,VALID,918.289,VALID,0,VALID,97.2824,VALID,0,VALID,20.3448,VALID,353,VALID,0.832422,
2010-06-02, 03:10:04,VALID,918.285,VALID,0,VALID,97.2824,VALID,0,VALID,20.3448,VALID,263,VALID,0.716797,
2010-06-02, 03:11:04,VALID,918.321,VALID,0,VALID,97.2824,VALID,0,VALID,20.3058,VALID,210,VALID,0.855469,
2010-06-02, 03:12:04,VALID,918.341,VALID,0,VALID,97.2824,VALID,0,VALID,20.3253,VALID,209,VALID,0.291797,
2010-06-02, 03:13:04,VALID,918.349,VALID,0,VALID,97.2672,VALID,0,VALID,20.2863,VALID,209,VALID,0.965234,
2010-06-02, 03:14:04,VALID,918.359,VALID,0,VALID,97.2672,VALID,0,VALID,20.2863,VALID,209,VALID,0.666797,
2010-06-02, 03:15:04,VALID,918.367,VALID,0,VALID,97.2672,VALID,0,VALID,20.2863,VALID,209,VALID,0.901953,
2010-06-02, 03:16:04,VALID,918.358,VALID,0,VALID,97.2672,VALID,0.107441,VALID,20.2668,VALID,219,VALID,0.497266,
2010-06-02, 03:17:04,VALID,918.342,VALID,0,VALID,97.29,VALID,0,VALID,20.2473,VALID,240,VALID,0.478906,
2010-06-02, 03:18:04,VALID,918.376,VALID,0,VALID,97.2672,VALID,0.107441,VALID,20.2489,VALID,240,VALID,0.732031,
2010-06-02, 03:19:04,VALID,918.406,VALID,0,VALID,97.2748,VALID,0.107441,VALID,20.2473,VALID,239,VALID,1.31914,
2010-06-02, 03:20:04,VALID,918.42,VALID,0,VALID,97.2672,VALID,0.107441,VALID,20.2668,VALID,267,VALID,0.796094,
2010-06-02, 03:21:04,VALID,918.44,VALID,0,VALID,97.29,VALID,0,VALID,20.2879,VALID,267,VALID,0.946094,
2010-06-02, 03:22:04,VALID,918.458,VALID,0,VALID,97.2824,VALID,0.107441,VALID,20.2879,VALID,267,VALID,0.484375,
2010-06-02, 03:23:04,VALID,918.408,VALID,0,VALID,97.29,VALID,0,VALID,20.2879,VALID,267,VALID,0.292969,
2010-06-02, 03:24:04,VALID,918.431,VALID,0,VALID,97.2748,VALID,0.107441,VALID,20.2668,VALID,267,VALID,0.535156,
2010-06-02, 03:25:04,VALID,918.452,VALID,0,VALID,97.2748,VALID,0.107441,VALID,20.2278,VALID,263,VALID,1.49063,
2010-06-02, 03:26:04,VALID,918.425,VALID,0,VALID,97.2824,VALID,0.107441,VALID,20.2083,VALID,272,VALID,0.676953,
2010-06-02, 03:27:04,VALID,918.431,VALID,0.5,VALID,97.2595,VALID,0,VALID,20.2473,VALID,272,VALID,0.576563,
2010-06-02, 03:28:04,VALID,918.45,VALID,0,VALID,97.2595,VALID,0,VALID,20.2473,VALID,215,VALID,0.838281,
2010-06-02, 03:29:04,VALID,918.437,VALID,0,VALID,97.229,VALID,0,VALID,20.1303,VALID,276,VALID,1.39375,
2010-06-02, 03:30:04,VALID,918.423,VALID,0,VALID,97.1757,VALID,0.107441,VALID,20.1108,VALID,232,VALID,1.53906,
2010-06-02, 03:31:04,VALID,918.459,VALID,0,VALID,97.1986,VALID,0,VALID,20.1513,VALID,260,VALID,1.00508,
2010-06-02, 03:32:04,VALID,918.443,VALID,0,VALID,97.1681,VALID,0,VALID,20.1303,VALID,260,VALID,0.501172,
2010-06-02, 03:33:04,VALID,918.459,VALID,0,VALID,97.1452,VALID,0,VALID,20.1108,VALID,265,VALID,1.10391,
2010-06-02, 03:34:04,VALID,918.461,VALID,0,VALID,97.1376,VALID,0.107441,VALID,20.1108,VALID,270,VALID,0.915625,
2010-06-02, 03:35:04,VALID,918.44,VALID,0,VALID,97.1223,VALID,0.107441,VALID,20.0913,VALID,270,VALID,0.879297,
2010-06-02, 03:36:04,VALID,918.442,VALID,0,VALID,97.0994,VALID,0.107441,VALID,20.0718,VALID,287,VALID,1.29531,
2010-06-02, 03:37:04,VALID,918.427,VALID,0,VALID,97.0613,VALID,0,VALID,20.0733,VALID,287,VALID,0.744531,
2010-06-02, 03:38:04,VALID,918.449,VALID,0,VALID,97.0232,VALID,0,VALID,20.0538,VALID,262,VALID,1.33438,
2010-06-02, 03:39:04,VALID,918.389,VALID,0,VALID,96.947,VALID,0.107441,VALID,20.0328,VALID,241,VALID,0.978516,
2010-06-02, 03:40:04,VALID,918.378,VALID,0,VALID,96.8098,VALID,0,VALID,19.9743,VALID,241,VALID,0.749219,
2010-06-02, 03:41:04,VALID,918.405,VALID,0,VALID,96.6497,VALID,0,VALID,19.9758,VALID,231,VALID,1.26055,
2010-06-02, 03:42:04,VALID,918.432,VALID,0,VALID,96.4972,VALID,0.107441,VALID,19.9158,VALID,237,VALID,1.18633,
2010-06-02, 03:43:04,VALID,918.43,VALID,0,VALID,96.3524,VALID,0,VALID,19.9563,VALID,199,VALID,1.13437,